Regional Weather Roundup
Issued by NWS

Home | Current Version | Previous Version | Text Only | Print | Product List | Glossary Off
Versions: 1 2 3 4 5 6 7 8 9 10 11 12 13 14 15 16 17 18 19 20 21 22 23 24 25 26 27 28

000
ASUS45 KTFX 120310
RWRMT
MONTANA REGIONAL WEATHER ROUNDUP
NATIONAL WEATHER SERVICE GREAT FALLS MT
800 PM MST MON DEC 11 2017

NOTE: "FAIR" INDICATES FEW OR NO CLOUDS BELOW 12000 FEET WITH NO
SIGNIFICANT WEATHER AND/OR OBSTRUCTIONS TO VISIBILITY.

MTZ001>007-043-120400-
WEST OF THE DIVIDE

CITY           SKY/WX    TMP DP  RH WIND       PRES   REMARKS
KALISPELL      CLOUDY    24  21  88 CALM      30.58F
MISSOULA       FAIR      17  15  92 E5        30.57S
BUTTE          FAIR      19  11  70 SE5       30.48S
MULLAN PASS    FAIR      40   4  22 S6        30.45S
ANACONDA         N/A     21  14  73 SW5       30.50S
DEER LODGE       N/A     19  16  86 W3        30.52S
EUREKA           N/A     23  18  80 MISG      30.61F
HAMILTON         N/A     14  10  85 CALM      30.55S
LIBBY            N/A     27  19  74 CALM      30.59S
PLAINS           N/A     29  20  69 E3        30.56F
RONAN            N/A     26  23  88 S2        30.56S
$$

MTZ008-052>055-120400-
SOUTHWEST MONTANA

CITY           SKY/WX    TMP DP  RH WIND       PRES   REMARKS
BOZEMAN        FAIR      18  13  80 S8        30.49R WCI   8
DILLON         FAIR      27  13  55 S7        30.47R WCI  19
W YELLOWSTONE  FAIR      12   9  85 S5        30.55S
ENNIS          CLOUDY    27  16  63 CALM      30.51R
THREE FORKS      N/A     14   9  81 CALM      30.42R
TWIN BRIDGES     N/A     23  10  57 CALM      30.39F
$$

MTZ009-010-012-014-046-048-049-054-120400-
EAST SLOPES AND CENTRAL MONTANA

CITY           SKY/WX    TMP DP  RH WIND       PRES   REMARKS
CUT BANK       FAIR      34  19  54 SW3       30.30F
GREAT FALLS    FAIR      40  14  34 S14       30.34F
MALMSTROM AFB  FAIR      35  15  45 SW10      30.34F WCI  27
HELENA         FAIR      23  17  78 CALM      30.48S
BOWMANS CRNR   FAIR      33  11  41 S15       30.35F WCI  23
CHOTEAU          N/A     39  21  48 SW7       30.34F
FAIRFIELD      FAIR      37  14  39 SW6       30.33F WCI  32
POWER          FAIR      29  15  53 SW6       30.32F WCI  23
RAYNESFORD     FAIR      37  20  50 CALM      30.35F
ULM            FAIR      37  18  45 S6        30.35F
$$

MTZ011-013-016-021-045-047-050-051-120400-
NORTH CENTRAL MONTANA

CITY           SKY/WX    TMP DP  RH WIND       PRES   REMARKS
HAVRE          FAIR      23  16  74 W3        30.31F
LEWISTOWN      FAIR      30  22  72 SE3       30.34F
N BAR RANCH    FAIR      30  19  64 W5        30.36F
CHINOOK          N/A     25  18  74 CALM      30.32F
DENTON         FAIR      31  18  57 MISG      30.30F
GEYSER         FAIR      38  20  49 SW12      30.33F WCI  31
GRASS RANGE    FAIR      33  22  63 W8        30.30F WCI  26
STANFORD       FAIR      33  22  64 CALM      30.34F
WINIFRED       FAIR      40  16  38 SW7       30.31F
$$

MTZ017>020-022>027-061-062-120400-
NORTHEAST MONTANA

CITY           SKY/WX    TMP DP  RH WIND       PRES   REMARKS
GLASGOW        FAIR      30  22  72 SW3       30.32F
GLENDIVE       FAIR      27  23  85 NW8       30.36S WCI  19
JORDAN           N/A     19  14  81 W3        30.35F
SIDNEY         FAIR      31  26  82 W7        30.34F WCI  24
WOLF POINT     FAIR      25  22  88 S6        30.34F WCI  18
MALTA          CLEAR     21  18  86 CALM      30.32F
PLENTYWOOD       N/A     28  27  93 CALM      30.30F
POPLAR           N/A     27  21  80 W3        30.35F
SCOBEY           N/A     24  15  68 CALM      30.26F
$$

MTZ028>42-056>058-120400-
SOUTHCENTRAL AND SOUTHEAST MONTANA

CITY           SKY/WX    TMP DP  RH WIND       PRES   REMARKS
BAKER          FAIR      26  23  88 W10       30.36F WCI  16
BILLINGS       FAIR      36  20  52 SW8       30.38F WCI  30
LIVINGSTON     FAIR      34  19  54 W17       30.42S WCI  23
MILES CITY     FAIR      27  21  78 SW5       30.37F
BIG TIMBER     CLEAR     45  14  29 W18G25    30.39F
EKALAKA          N/A     29  22  75 SW6       30.29F WCI  23
FORSYTH          N/A     30  19  64 CALM      30.37F
LAUREL           N/A     32  21  64 SW8       30.39F WCI  25
ROUNDUP          N/A     36  14  40 SW6       30.24F WCI  31
$$

REGIONAL REPORTS...DAKOTAS

CITY           SKY/WX    TMP DP  RH WIND       PRES   REMARKS
WILLISTON        N/A    N/A N/A N/A MISG      30.33S
MINOT          MOCLDY    22  19  89 SW7       30.29F WCI  13
DICKINSON      CLOUDY    34  30  85 W8        30.31S WCI  27
BEACH          FAIR      28  25  86 W10       30.37S WCI  19
CROSBY         FAIR      28  28 100 SW7       30.28F WCI  21
TIOGA          FAIR      28  28 100 W8        30.30F WCI  20
WATFORD CITY   FAIR      28  27  93 SW5       30.32S
BISMARCK       FAIR      21  16  81 SW3       30.34F
GRAND FORKS    FAIR       4   2  91 W5        30.34F
FARGO          FAIR       8   4  83 NW7       30.36S WCI  -3
BUFFALO SD       N/A     24  21  88 NW10      30.30F WCI  14
RAPID CITY     FAIR      25  20  81 N10       30.39R WCI  15
$$

REGIONAL REPORTS...WYOMING/IDAHO/WASHINGTON

CITY           SKY/WX    TMP DP  RH WIND       PRES   REMARKS
GILLETTE         N/A     28  16  60 W5        30.38F
SHERIDAN       FAIR      23  16  74 CALM      30.39F
BUFFALO WY     FAIR      32  13  45 SW5       30.40F
CODY           FAIR      33  16  49 SW3       30.42F
YELLOWSTONE LA   N/A     15  14  95 W3        30.56R
IDAHO FALLS    FAIR      18  15  88 CALM      30.56R
SALMON         CLOUDY    16  14  92 CALM      30.69S
BOISE          CLOUDY    25  21  85 CALM      30.65R
SPOKANE        CLOUDY    26  26 100 S5        30.55S
$$

REGIONAL REPORTS...ALBERTA

CITY           SKY/WX    TMP DP  RH WIND       PRES   REMARKS
EDMONTON       PTCLDY    36  23  60 SW10      30.10F WCI  28
CALGARY        PTCLDY    34  19  55 CALM      30.20F
LETHBRIDGE     CLEAR     36  21  55 SW10      30.24F WCI  28
MEDICINE HAT   CLEAR     28  21  74 SW6       30.24F WCI  22
$$

REGIONAL REPORTS...SASKATCHEWAN

CITY           SKY/WX    TMP DP  RH WIND       PRES   REMARKS
SWIFT CURRENT  PTCLDY    32  21  64 SW15      30.22F WCI  22
REGINA         CLEAR     25  23  93 W9        30.23F WCI  15
SASKATOON      PTCLDY    27  23  86 SW10      30.18F WCI  17
$$




USA.gov is the U.S. government's official web portal to all federal, state and local government web resources and services.